User: anonymous   Login
Location: Sungai Bunut
(2.6333°N, 113.7333°E)
Time: 11:09:46
(UTC+00:00)
Language:

Cosmos 1674 Rocket - Orbit

View from above orbital plane
View from above orbital plane
View from above satellite
View from above satellite

Ground track
Ground track

The orbit data is extracted from the following two-line orbital elements,

1 15945U 85069B   22021.94394192  .00000197  00000-0  20539-4 0  9990
2 15945  82.5285 359.7141 0020774 134.6491 225.6422 14.84126090949071
Epoch (UTC): 21 January 2022 22:39:16
Eccentricity: 0.0020774
inclination: 82.5285°
perigee height: 602 km
apogee height: 631 km
right ascension of ascending node: 359.7141°
argument of perigee: 134.6491°
revolutions per day: 14.84126090
mean anomaly at epoch: 225.6422°
orbit number at epoch: 94907

The dashed part of the orbit path shows where the satellite is in the earth's shadow,  

DLR